Home > Weather > Kazan > Past weeks

Flag for Russia Weather for the Past 2 Weeks in Kazan, Russia

Now
48 °F

Clear.


Feels Like: 46 °F
Forecast: 46 / 56 °F
Wind: 6 mph from Northeast

Location: Kazan'

Current Time: May 3, 2016 at 1:08:25 AM

Latest Report: May 3, 2016 at 12:00 AM


Visibility: 10 mi

Pressure: 30.09 "Hg

Humidity: 82%

Dew Point: 43 °F

Location of KazanLocation

Historic Weather in Kazan — Graph

°F

Kazan Temperature Yesterday

Maximum temperature yesterday: 64 °F (at 2:00 PM)
Minimum temperature yesterday: 48 °F (at 12:00 AM)
Average temperature yesterday: 55 °F

High & Low Weather Summary for the Past Weeks

 TemperatureHumidityPressure
High68 °F (Apr 26, 1:00 PM)100% (Apr 19, 2:30 AM)30.39 "Hg (Apr 19, 2:30 AM)
Low34 °F (Apr 19, 2:30 AM)19% (Apr 27, 2:30 PM)29.39 "Hg (Apr 21, 10:00 PM)
Average49 °F60%29.98 "Hg
* Reported Apr 17 11:00 PM — May 2 11:30 PM, Kazan, Weather by CustomWeather, © 2016

Note: Actual official high and low records may vary slightly from our data, if they occured in-between our weather recording intervals... More about our weather records

Advertising

Kazan Weather History for the Previous 24 Hours

Scroll right to see more
 ConditionsComfort  
Time TempWeatherWind HumidityBarometerVisibility
11:30 PM
Mon, May 2
48 °FClear.6 mph82%30.09 "Hg10 mi
11:00 PM48 °FClear.3 mph82%30.09 "Hg10 mi
10:30 PM48 °FClear.3 mph82%30.12 "Hg10 mi
10:00 PM48 °FClear.6 mph82%30.09 "Hg10 mi
9:30 PM48 °FClear.3 mph82%30.12 "Hg10 mi
9:00 PM52 °FClear.6 mph72%30.12 "Hg10 mi
8:30 PM50 °FClear.6 mph76%30.12 "Hg10 mi
8:00 PM50 °FClear.6 mph76%30.12 "Hg10 mi
7:30 PM52 °FClear.6 mph77%30.12 "Hg10 mi
7:00 PM52 °FScattered clouds.6 mph77%30.12 "HgN/A
6:30 PM54 °FScattered clouds.10 mph72%30.12 "HgN/A
6:00 PM57 °FSunny.15 mph63%30.09 "Hg10 mi
5:30 PM61 °FSunny.15 mph39%30.09 "Hg10 mi
5:00 PM63 °FSunny.15 mph39%30.09 "Hg10 mi
4:30 PM63 °FSunny.17 mph37%30.09 "Hg10 mi
4:00 PM63 °FPassing clouds.13 mph39%30.09 "HgN/A
3:30 PM63 °FPassing clouds.13 mph42%30.09 "HgN/A
3:00 PM61 °FPassing clouds.10 mph42%30.09 "HgN/A
2:30 PM63 °FPassing clouds.10 mph39%30.09 "HgN/A
2:00 PM64 °FPassing clouds.15 mph40%30.09 "HgN/A
1:30 PM63 °FSunny.13 mph45%30.09 "Hg10 mi
1:00 PM63 °FPassing clouds.13 mph42%30.09 "HgN/A
12:30 PM63 °FPassing clouds.13 mph42%30.09 "HgN/A
12:00 PM63 °FPassing clouds.13 mph45%30.09 "HgN/A
11:30 AM63 °FPassing clouds.15 mph37%30.09 "HgN/A
10:30 AM63 °FSunny.10 mph34%30.09 "Hg10 mi
10:00 AM61 °FPassing clouds.10 mph39%30.09 "HgN/A
9:30 AM61 °FPassing clouds.8 mph39%30.09 "HgN/A
9:00 AM59 °FPassing clouds.10 mph42%30.09 "HgN/A
8:00 AM54 °FScattered clouds.8 mph58%30.09 "HgN/A
7:30 AM54 °FScattered clouds.8 mph58%30.09 "HgN/A
7:00 AM52 °FScattered clouds.8 mph62%30.09 "HgN/A
6:30 AM50 °FScattered clouds.6 mph76%30.09 "HgN/A
6:00 AM50 °FScattered clouds.3 mph71%30.09 "HgN/A
5:30 AM48 °FScattered clouds.6 mph82%30.09 "HgN/A
4:30 AM48 °FScattered clouds.6 mph76%30.09 "HgN/A
4:00 AM48 °FScattered clouds.6 mph76%30.09 "HgN/A
3:30 AM48 °FPassing clouds.6 mph82%30.09 "HgN/A
2:30 AM48 °FPassing clouds.6 mph82%30.09 "HgN/A
2:00 AM48 °FPassing clouds.6 mph82%30.09 "HgN/A
1:30 AM48 °FPassing clouds.3 mph82%30.09 "HgN/A
1:00 AM48 °FPassing clouds.3 mph82%30.09 "HgN/A
Weather by CustomWeather, © 2016

See weather overviewHow to use our weather pages